Air Quality Table

TIMESTAMP NO2 O3 PM2.5 TEMP HUM AIRPRES WS WD NO
2022-11-26 10:00 20.13 µg/m3 56.14 µg/m3 -4.29 µg/m3 14.57 °C N/A 1,002.52 mbar 1.56 m/s 246.1 Deg 1.65 µg/m3
2022-11-26 09:00 10.92 µg/m3 67.82 µg/m3 1.23 µg/m3 16.06 °C N/A 1,002.19 mbar 2.65 m/s 237.78 Deg 1.06 µg/m3
2022-11-26 08:00 11.63 µg/m3 70.7 µg/m3 -0.22 µg/m3 18.74 °C N/A 1,002.32 mbar 2.97 m/s 193.38 Deg 1.37 µg/m3
2022-11-26 07:00 9.14 µg/m3 73.96 µg/m3 2.33 µg/m3 18.28 °C N/A 1,003.43 mbar 2.68 m/s 204.97 Deg 0.9 µg/m3
2022-11-26 06:00 8.38 µg/m3 71.65 µg/m3 0.29 µg/m3 17.6 °C N/A 1,003.61 mbar 1.93 m/s 201.25 Deg 0.69 µg/m3
2022-11-26 05:00 7.03 µg/m3 66.59 µg/m3 1.23 µg/m3 16.97 °C N/A 1,004.43 mbar 1.02 m/s 203.32 Deg 0.29 µg/m3
2022-11-26 04:00 6.35 µg/m3 67.5 µg/m3 2.75 µg/m3 16.7 °C N/A 1,005.45 mbar 0.81 m/s 210.84 Deg 0.24 µg/m3
2022-11-26 03:00 10.59 µg/m3 54.96 µg/m3 3.01 µg/m3 15.72 °C N/A 1,006.61 mbar 0.71 m/s 212.86 Deg 0.41 µg/m3
2022-11-26 02:00 14.28 µg/m3 45.81 µg/m3 3.18 µg/m3 15.31 °C N/A 1,006.99 mbar 0.41 m/s 273.11 Deg 0.27 µg/m3
2022-11-26 01:00 26.06 µg/m3 31.69 µg/m3 4.45 µg/m3 14.84 °C N/A 1,007.25 mbar 0.44 m/s 296.2 Deg 0.38 µg/m3
2022-11-26 00:00 33.45 µg/m3 27.36 µg/m3 10.14 µg/m3 14.51 °C N/A 1,007.92 mbar 0.56 m/s 281.48 Deg 1.8 µg/m3
2022-11-25 23:00 51.06 µg/m3 5.86 µg/m3 9.38 µg/m3 14.15 °C N/A 1,008.41 mbar 0.49 m/s 260.82 Deg 16.41 µg/m3
2022-11-25 22:00 55.93 µg/m3 1.89 µg/m3 9.89 µg/m3 14.14 °C N/A 1,008.84 mbar 0.27 m/s 259.91 Deg 14.44 µg/m3
2022-11-25 21:00 64.66 µg/m3 3.31 µg/m3 13.11 µg/m3 14.31 °C N/A 1,009.02 mbar 0.47 m/s 282.46 Deg 25.03 µg/m3
2022-11-25 20:00 67.33 µg/m3 1.84 µg/m3 9.38 µg/m3 14.83 °C N/A 1,008.71 mbar 0.57 m/s 277.78 Deg 30.91 µg/m3
2022-11-25 19:00 36.26 µg/m3 36.36 µg/m3 5.39 µg/m3 15.71 °C N/A 1,008.58 mbar 0.35 m/s 305.96 Deg 3.3 µg/m3
2022-11-25 18:00 26.85 µg/m3 49.25 µg/m3 4.62 µg/m3 16.44 °C N/A 1,008.57 mbar 0.43 m/s 311.74 Deg 0.33 µg/m3
2022-11-25 17:00 14.34 µg/m3 67.45 µg/m3 3.26 µg/m3 18.04 °C N/A 1,008.26 mbar 0.52 m/s 311.81 Deg 0.47 µg/m3
2022-11-25 16:00 10.4 µg/m3 74.97 µg/m3 3.52 µg/m3 19.19 °C N/A 1,008.24 mbar 0.99 m/s 338.08 Deg 1.03 µg/m3
2022-11-25 15:00 7.37 µg/m3 82.06 µg/m3 2.84 µg/m3 19.85 °C N/A 1,007.94 mbar 0.94 m/s 255.45 Deg 1.01 µg/m3
2022-11-25 14:00 4.98 µg/m3 81.78 µg/m3 4.54 µg/m3 20.06 °C N/A 1,008.53 mbar 0.93 m/s 334.04 Deg 0.79 µg/m3
2022-11-25 13:00 5.04 µg/m3 80.93 µg/m3 3.94 µg/m3 20.15 °C N/A 1,008.99 mbar 1.08 m/s 332.38 Deg 0.8 µg/m3
2022-11-25 12:00 7.6 µg/m3 74.81 µg/m3 3.26 µg/m3 19.32 °C N/A 1,009.29 mbar 1.37 m/s 8.39 Deg 1.45 µg/m3
2022-11-25 11:00 8.25 µg/m3 72.52 µg/m3 -0.22 µg/m3 19.17 °C N/A 1,009.65 mbar 1.33 m/s 181.47 Deg 1.49 µg/m3
2022-11-25 10:00 10.81 µg/m3 67.3 µg/m3 -0.22 µg/m3 18.53 °C N/A 1,009.76 mbar 1.07 m/s 254.48 Deg 1.6 µg/m3
2022-11-25 09:00 14.55 µg/m3 55.25 µg/m3 -0.22 µg/m3 17.5 °C N/A 1,009.41 mbar 0.66 m/s 316.77 Deg 1.6 µg/m3
2022-11-25 08:00 N/A 45.48 µg/m3 1.68 µg/m3 15.35 °C N/A 1,009.10 mbar 0.57 m/s 316.09 Deg N/A
2022-11-25 07:00 N/A 50.57 µg/m3 0.19 µg/m3 14.47 °C N/A 1,008.59 mbar 0.71 m/s 302.05 Deg N/A
2022-11-25 06:00 N/A 54.73 µg/m3 1.42 µg/m3 14.22 °C N/A 1,008.10 mbar 0.42 m/s 301.9 Deg N/A
2022-11-25 05:00 N/A 58.85 µg/m3 0.57 µg/m3 14.79 °C N/A 1,007.85 mbar 0.46 m/s 302.43 Deg N/A
2022-11-25 04:00 N/A 63.89 µg/m3 1.14 µg/m3 14.97 °C N/A 1,007.70 mbar 0.46 m/s 308.59 Deg N/A
2022-11-25 03:00 N/A 65.83 µg/m3 1.42 µg/m3 15.26 °C N/A 1,007.50 mbar 0.49 m/s 320.58 Deg N/A
2022-11-25 02:00 N/A 67.06 µg/m3 1.84 µg/m3 15.45 °C N/A 1,007.21 mbar 0.58 m/s 318.67 Deg N/A
2022-11-25 01:00 N/A 67.74 µg/m3 2.37 µg/m3 15.92 °C N/A 1,007.16 mbar 0.75 m/s 315.32 Deg N/A
2022-11-25 00:00 N/A 70.32 µg/m3 2.5 µg/m3 16.02 °C N/A 1,007.09 mbar 0.79 m/s 321.49 Deg N/A
2022-11-24 23:00 N/A 70.77 µg/m3 1.61 µg/m3 16.28 °C N/A 1,006.75 mbar 0.67 m/s 313.75 Deg N/A
2022-11-24 22:00 N/A 74.69 µg/m3 3.28 µg/m3 16.66 °C N/A 1,006.45 mbar 1.03 m/s 338.87 Deg N/A
2022-11-24 21:00 N/A 77.91 µg/m3 2.99 µg/m3 16.86 °C N/A 1,006.01 mbar 1.1 m/s 321.46 Deg N/A
2022-11-24 20:00 N/A 80.09 µg/m3 1.4 µg/m3 16.91 °C N/A 1,005.39 mbar 1.29 m/s 345.44 Deg N/A
2022-11-24 19:00 N/A 79.13 µg/m3 2.82 µg/m3 17.22 °C N/A 1,004.87 mbar 1.35 m/s 342.91 Deg N/A
2022-11-24 18:00 N/A 81.17 µg/m3 3.11 µg/m3 17.67 °C N/A 1,004.39 mbar 1.54 m/s 332.62 Deg N/A
2022-11-24 17:00 N/A 80.82 µg/m3 4.09 µg/m3 18.27 °C N/A 1,003.85 mbar 1.68 m/s 319.44 Deg N/A
2022-11-24 16:00 N/A 80.43 µg/m3 4.96 µg/m3 19.17 °C N/A 1,003.18 mbar 2.11 m/s 329.13 Deg N/A
2022-11-24 15:00 N/A 80.23 µg/m3 4.81 µg/m3 19.74 °C N/A 1,002.98 mbar 2.04 m/s 331.27 Deg N/A
2022-11-24 14:00 N/A 78.76 µg/m3 4.26 µg/m3 19.98 °C N/A 1,003.07 mbar 2.13 m/s 334.23 Deg N/A
2022-11-24 13:00 N/A 71.72 µg/m3 3.22 µg/m3 20.16 °C N/A 1,003.20 mbar 2.33 m/s 327.45 Deg N/A
2022-11-24 12:00 N/A 66.14 µg/m3 3.82 µg/m3 20.04 °C N/A 1,003.58 mbar 2.04 m/s 259.87 Deg N/A
2022-11-24 11:00 N/A 64.75 µg/m3 3.73 µg/m3 20.13 °C N/A 1,003.76 mbar 1.58 m/s 320.63 Deg N/A
2022-11-24 10:00 N/A 56.54 µg/m3 2.9 µg/m3 19.66 °C N/A 1,003.70 mbar 1.64 m/s 339 Deg N/A
2022-11-24 09:00 N/A 53.91 µg/m3 2.03 µg/m3 18.92 °C N/A 1,003.24 mbar 1.65 m/s 334.05 Deg N/A
2022-11-24 08:00 N/A 54.71 µg/m3 2.14 µg/m3 18.36 °C N/A 1,002.37 mbar 1.5 m/s 241.75 Deg N/A
2022-11-24 07:00 N/A 54.41 µg/m3 2.82 µg/m3 18.1 °C N/A 1,001.46 mbar 1.52 m/s 331.66 Deg N/A
2022-11-24 06:00 N/A 57.21 µg/m3 3.71 µg/m3 18.49 °C N/A 1,000.43 mbar 1.75 m/s 333.05 Deg N/A
2022-11-24 05:00 N/A 60.38 µg/m3 3.69 µg/m3 18.45 °C N/A 999.94 mbar 1.76 m/s 330.45 Deg N/A
2022-11-24 04:00 N/A 58.91 µg/m3 2.33 µg/m3 18.19 °C N/A 999.85 mbar 1.86 m/s 340.97 Deg N/A
2022-11-24 03:00 N/A 58.83 µg/m3 3.11 µg/m3 18.29 °C N/A 999.75 mbar 1.99 m/s 324.75 Deg N/A
2022-11-24 02:00 N/A 60.63 µg/m3 2.95 µg/m3 18.1 °C N/A 999.63 mbar 2.17 m/s 331.72 Deg N/A
2022-11-24 01:00 N/A 62.42 µg/m3 0.65 µg/m3 17.63 °C N/A 999.60 mbar 2.21 m/s 317.95 Deg N/A
2022-11-24 00:00 N/A 63.07 µg/m3 0.14 µg/m3 17.53 °C N/A 999.93 mbar 1.99 m/s 316.83 Deg N/A
2022-11-23 23:00 N/A 62.38 µg/m3 -1.07 µg/m3 17.04 °C N/A 999.89 mbar 1.6 m/s 326.58 Deg N/A
2022-11-23 22:00 N/A 64.34 µg/m3 1.5 µg/m3 16.58 °C N/A 1,000.03 mbar 2.15 m/s 311.35 Deg N/A
2022-11-23 21:00 N/A 70.3 µg/m3 2.05 µg/m3 17.77 °C N/A 999.75 mbar 2.58 m/s 320.32 Deg N/A
2022-11-23 20:00 N/A 70.89 µg/m3 1.46 µg/m3 18.65 °C N/A 999.25 mbar 2.06 m/s 319.12 Deg N/A
2022-11-23 19:00 N/A 77.27 µg/m3 0.36 µg/m3 18.59 °C N/A 999.01 mbar 2.52 m/s 303.9 Deg N/A
2022-11-23 18:00 N/A 78.57 µg/m3 0.99 µg/m3 18.16 °C N/A 998.78 mbar 2.48 m/s 309.38 Deg N/A
2022-11-23 17:00 N/A 75.87 µg/m3 1.31 µg/m3 17.87 °C N/A 998.44 mbar 2.36 m/s 309.48 Deg N/A
2022-11-23 16:00 N/A 77.27 µg/m3 3.09 µg/m3 18.17 °C N/A 997.92 mbar 2.5 m/s 310.8 Deg N/A
2022-11-23 15:00 N/A 79.11 µg/m3 2.29 µg/m3 19 °C N/A 997.56 mbar 2.95 m/s 315.03 Deg N/A
2022-11-23 14:00 N/A 79.06 µg/m3 2.78 µg/m3 18.88 °C N/A 997.85 mbar 2.4 m/s 309.7 Deg N/A
2022-11-23 13:00 N/A 78.59 µg/m3 3.03 µg/m3 19.35 °C N/A 997.98 mbar 2.96 m/s 301.9 Deg N/A
2022-11-23 12:00 N/A 76.16 µg/m3 2.12 µg/m3 18.75 °C N/A 998.51 mbar 2.6 m/s 300.95 Deg N/A
2022-11-23 11:00 N/A 73.36 µg/m3 3.54 µg/m3 18.68 °C N/A 998.87 mbar 2.56 m/s 310.18 Deg N/A
2022-11-23 10:00 N/A 73.99 µg/m3 1.95 µg/m3 18.37 °C N/A 999.10 mbar 2.6 m/s 307.7 Deg N/A
2022-11-23 09:00 N/A 74.26 µg/m3 2.18 µg/m3 17.41 °C N/A 998.89 mbar 2.23 m/s 325.35 Deg N/A
2022-11-23 08:00 N/A 76.87 µg/m3 2.61 µg/m3 16.51 °C N/A 998.43 mbar 2.13 m/s 315.28 Deg N/A
2022-11-23 07:00 N/A 78.1 µg/m3 1.2 µg/m3 16.14 °C N/A 998.26 mbar 1.76 m/s 317.84 Deg N/A
2022-11-23 06:00 N/A 81.34 µg/m3 0.27 µg/m3 16.03 °C N/A 998.25 mbar 1.91 m/s 303.83 Deg N/A
2022-11-23 05:00 N/A 80.84 µg/m3 0.82 µg/m3 15.96 °C N/A 998.46 mbar 1.62 m/s 315.4 Deg N/A
2022-11-23 04:00 N/A 79.09 µg/m3 1.76 µg/m3 15.74 °C N/A 998.71 mbar 2.11 m/s 306.37 Deg N/A
2022-11-23 03:00 N/A 77.05 µg/m3 0.4 µg/m3 14.79 °C N/A 999.08 mbar 1.42 m/s 308.59 Deg N/A
2022-11-23 02:00 N/A 76.48 µg/m3 -2.23 µg/m3 14.46 °C N/A 999.38 mbar 1.62 m/s 310.5 Deg N/A
2022-11-23 01:00 N/A 81.54 µg/m3 0.57 µg/m3 14.1 °C N/A 999.97 mbar 2.42 m/s 309.37 Deg N/A
2022-11-23 00:00 N/A 81.65 µg/m3 2.95 µg/m3 16.46 °C N/A 999.96 mbar 3.13 m/s 295.58 Deg N/A
2022-11-22 23:00 N/A 82.52 µg/m3 2.07 µg/m3 16.74 °C N/A 999.85 mbar 2.6 m/s 296.53 Deg N/A
2022-11-22 22:00 N/A 83.49 µg/m3 1.97 µg/m3 16.82 °C N/A 999.87 mbar 2.53 m/s 307.02 Deg N/A
2022-11-22 21:00 N/A 84.53 µg/m3 1.95 µg/m3 16.93 °C N/A 999.45 mbar 2.63 m/s 313.88 Deg N/A
2022-11-22 20:00 N/A 83.59 µg/m3 1.46 µg/m3 16.95 °C N/A 999.20 mbar 2.34 m/s 311.82 Deg N/A
2022-11-22 19:00 N/A 83.25 µg/m3 2.97 µg/m3 16.86 °C N/A 998.98 mbar 2.49 m/s 319.83 Deg N/A
2022-11-22 18:00 N/A 81.96 µg/m3 1.42 µg/m3 16.8 °C N/A 998.75 mbar 1.99 m/s 319.64 Deg N/A
2022-11-22 17:00 N/A 80.8 µg/m3 3.01 µg/m3 16.7 °C N/A 998.11 mbar 2.23 m/s 312.89 Deg N/A
2022-11-22 16:00 N/A 81.67 µg/m3 5.24 µg/m3 17.6 °C N/A 997.54 mbar 2.54 m/s 325.6 Deg N/A
2022-11-22 15:00 N/A 79.62 µg/m3 7 µg/m3 18.43 °C N/A 996.82 mbar 3.4 m/s 305.99 Deg N/A
2022-11-22 14:00 N/A 72.93 µg/m3 9.14 µg/m3 17.67 °C N/A 997.02 mbar 2.95 m/s 302.58 Deg N/A
2022-11-22 13:00 N/A 79.79 µg/m3 11.37 µg/m3 19.31 °C N/A 996.93 mbar 4.56 m/s 296.55 Deg N/A
2022-11-22 12:00 N/A 83.31 µg/m3 9.76 µg/m3 19.97 °C N/A 997.28 mbar 5.55 m/s 279.8 Deg N/A
2022-11-22 11:00 N/A 82.75 µg/m3 9.23 µg/m3 19.47 °C N/A 997.58 mbar 5.9 m/s 276.13 Deg N/A
2022-11-22 10:00 N/A 82.69 µg/m3 6.11 µg/m3 19.14 °C N/A 997.25 mbar 6.03 m/s 265.07 Deg N/A
2022-11-22 09:00 N/A 81.59 µg/m3 4.47 µg/m3 18.71 °C N/A 997.36 mbar 6.2 m/s 264.65 Deg N/A
2022-11-22 08:00 N/A 81.95 µg/m3 1.93 µg/m3 18.03 °C N/A 997.66 mbar 5.67 m/s 268.85 Deg N/A
2022-11-22 07:00 N/A 84.39 µg/m3 2.54 µg/m3 17.71 °C N/A 998.43 mbar 5.62 m/s 268.53 Deg N/A
2022-11-22 06:00 N/A 88.54 µg/m3 2.24 µg/m3 17.61 °C N/A 998.93 mbar 5.02 m/s 258.18 Deg N/A
2022-11-22 05:00 N/A 90.31 µg/m3 2.95 µg/m3 17.74 °C N/A 999.71 mbar 4.6 m/s 260.68 Deg N/A
2022-11-22 04:00 N/A 91.88 µg/m3 3.14 µg/m3 17.95 °C N/A 1,001.05 mbar 3.99 m/s 264.18 Deg N/A
2022-11-22 03:00 N/A 90.4 µg/m3 2.33 µg/m3 18.36 °C N/A 1,002.06 mbar 3.42 m/s 279.43 Deg N/A
2022-11-22 02:00 N/A 89.48 µg/m3 0.16 µg/m3 18.17 °C N/A 1,002.58 mbar 2.8 m/s 262.5 Deg N/A
2022-11-22 01:00 N/A 88.02 µg/m3 -0.09 µg/m3 17.92 °C N/A 1,003.62 mbar 2.71 m/s 276.43 Deg N/A
2022-11-22 00:00 N/A 88 µg/m3 0.23 µg/m3 17.43 °C N/A 1,004.30 mbar 2.39 m/s 273.28 Deg N/A
2022-11-21 23:00 N/A 84.27 µg/m3 -0.73 µg/m3 17.24 °C N/A 1,004.74 mbar 2.01 m/s 274.32 Deg N/A
2022-11-21 22:00 N/A 84.23 µg/m3 -0.18 µg/m3 17.38 °C N/A 1,005.01 mbar 2.1 m/s 275.95 Deg N/A
2022-11-21 21:00 N/A 83.63 µg/m3 1.65 µg/m3 17.29 °C N/A 1,004.88 mbar 2.08 m/s 279.7 Deg N/A
2022-11-21 20:00 N/A 80.65 µg/m3 1.2 µg/m3 17.31 °C N/A 1,004.92 mbar 1.43 m/s 296.18 Deg N/A
2022-11-21 19:00 N/A 80.52 µg/m3 0.12 µg/m3 17.41 °C N/A 1,005.18 mbar 1.88 m/s 312.17 Deg N/A
2022-11-21 18:00 N/A 80.85 µg/m3 1.14 µg/m3 17.31 °C N/A 1,005.09 mbar 1.43 m/s 313.56 Deg N/A
2022-11-21 17:00 N/A 81.85 µg/m3 1.06 µg/m3 17.79 °C N/A 1,004.82 mbar 1.63 m/s 322.83 Deg N/A
2022-11-21 16:00 N/A 82.36 µg/m3 1.65 µg/m3 18.38 °C N/A 1,004.71 mbar 1.84 m/s 309.85 Deg N/A
2022-11-21 15:00 N/A 77.74 µg/m3 -0.2 µg/m3 17.82 °C N/A 1,004.87 mbar 2.09 m/s 326.55 Deg N/A
2022-11-21 14:00 N/A 77.94 µg/m3 1.97 µg/m3 18.32 °C N/A 1,005.00 mbar 1.82 m/s 322.9 Deg N/A
2022-11-21 13:00 N/A 78.74 µg/m3 0.76 µg/m3 17.79 °C N/A 1,005.27 mbar 1.8 m/s 325.3 Deg N/A
2022-11-21 12:00 N/A 75.47 µg/m3 0.04 µg/m3 16.83 °C N/A 1,006.06 mbar 1.37 m/s 328.59 Deg N/A
2022-11-21 11:00 N/A 74.43 µg/m3 3.35 µg/m3 16.66 °C N/A 1,006.32 mbar 1.28 m/s 327.26 Deg N/A
2022-11-21 10:00 N/A 76.63 µg/m3 3.43 µg/m3 17.87 °C N/A 1,005.90 mbar 1.8 m/s 327.1 Deg N/A
2022-11-21 09:00 N/A 75.33 µg/m3 4.43 µg/m3 17.2 °C N/A 1,005.51 mbar 2.19 m/s 338.67 Deg N/A
2022-11-21 08:00 N/A 74.22 µg/m3 2.07 µg/m3 16.39 °C N/A 1,005.03 mbar 1.67 m/s 336.52 Deg N/A
2022-11-21 07:00 N/A 74.83 µg/m3 1.52 µg/m3 15.57 °C N/A 1,004.50 mbar 1.72 m/s 336.7 Deg N/A
2022-11-21 06:00 N/A 74.29 µg/m3 -0.13 µg/m3 14.96 °C N/A 1,003.94 mbar 1.42 m/s 341.12 Deg N/A
2022-11-21 05:00 N/A 73.05 µg/m3 -0.35 µg/m3 15.5 °C N/A 1,003.46 mbar 1.14 m/s 322.84 Deg N/A
2022-11-21 04:00 N/A 78.18 µg/m3 0.86 µg/m3 15.69 °C N/A 1,003.16 mbar 1.38 m/s 324.55 Deg N/A
2022-11-21 03:00 N/A 82.4 µg/m3 0.14 µg/m3 16.04 °C N/A 1,002.97 mbar 1.73 m/s 312.19 Deg N/A
2022-11-21 02:00 N/A 84.8 µg/m3 0.16 µg/m3 16.08 °C N/A 1,003.03 mbar 2.14 m/s 316.28 Deg N/A
2022-11-21 01:00 N/A 80.69 µg/m3 0.74 µg/m3 15.92 °C N/A 1,003.19 mbar 1.67 m/s 326.15 Deg N/A
2022-11-21 00:00 N/A 82.75 µg/m3 1.46 µg/m3 16.78 °C N/A 1,003.06 mbar 2.17 m/s 321.44 Deg N/A
2022-11-20 23:00 N/A 79.93 µg/m3 1.46 µg/m3 16.63 °C N/A 1,002.75 mbar 1.65 m/s 315 Deg N/A
2022-11-20 22:00 N/A 79.22 µg/m3 0.7 µg/m3 17.19 °C N/A 1,002.14 mbar 1.82 m/s 318.45 Deg N/A
2022-11-20 21:00 N/A 80.82 µg/m3 -0.43 µg/m3 17.01 °C N/A 1,001.42 mbar 1.93 m/s 320.77 Deg N/A
2022-11-20 20:00 N/A 81.97 µg/m3 -0.35 µg/m3 16.77 °C N/A 1,000.79 mbar 1.96 m/s 327.23 Deg N/A
2022-11-20 19:00 N/A 78.73 µg/m3 -0.22 µg/m3 16.67 °C N/A 1,000.13 mbar 1.71 m/s 322.87 Deg N/A
2022-11-20 18:00 N/A 78.22 µg/m3 -0.28 µg/m3 15.66 °C N/A 999.30 mbar 1.52 m/s 323.42 Deg N/A
2022-11-20 17:00 N/A 83.07 µg/m3 -0.49 µg/m3 15.75 °C N/A 998.69 mbar 2 m/s 303.47 Deg N/A
2022-11-20 16:00 N/A 82.27 µg/m3 0.84 µg/m3 15.96 °C N/A 998.01 mbar 2.17 m/s 302.47 Deg N/A
2022-11-20 15:00 N/A 80.91 µg/m3 0.42 µg/m3 16.55 °C N/A 997.59 mbar 2.43 m/s 307.92 Deg N/A
2022-11-20 14:00 N/A 77.25 µg/m3 -0.45 µg/m3 16.04 °C N/A 997.78 mbar 1.87 m/s 293.33 Deg N/A
2022-11-20 13:00 N/A 81.25 µg/m3 -1.15 µg/m3 16.38 °C N/A 998.01 mbar 1.68 m/s 315.02 Deg N/A
2022-11-20 12:00 N/A 85.74 µg/m3 -2.98 µg/m3 13.16 °C N/A 998.76 mbar 2.46 m/s 308.35 Deg N/A
2022-11-20 11:00 N/A 78.52 µg/m3 1.76 µg/m3 16.44 °C N/A 997.94 mbar 2.62 m/s 327.92 Deg N/A
2022-11-20 10:00 N/A 74.99 µg/m3 22.56 µg/m3 17.4 °C N/A 997.39 mbar 1.61 m/s 334.05 Deg N/A
2022-11-20 09:00 N/A 77.32 µg/m3 46.1 µg/m3 19.4 °C N/A 996.09 mbar 3.78 m/s 282.2 Deg N/A
2022-11-20 08:00 N/A 73.68 µg/m3 18.84 µg/m3 19.16 °C N/A 995.71 mbar 4.2 m/s 236.07 Deg N/A
2022-11-20 07:00 N/A 28.07 µg/m3 4.66 µg/m3 16.48 °C N/A 995.90 mbar 0.91 m/s 232.98 Deg N/A
2022-11-20 06:00 N/A 35.93 µg/m3 2.14 µg/m3 16.75 °C N/A 996.62 mbar 0.48 m/s 252.65 Deg N/A
2022-11-20 05:00 N/A 61.54 µg/m3 3.05 µg/m3 17.39 °C N/A 997.18 mbar 0.58 m/s 175.26 Deg N/A
2022-11-20 04:00 N/A 56.63 µg/m3 1.48 µg/m3 17.66 °C N/A 997.35 mbar 0.5 m/s 313.56 Deg N/A
2022-11-20 03:00 N/A 61.14 µg/m3 0.99 µg/m3 17.93 °C N/A 997.68 mbar 0.6 m/s 340.9 Deg N/A
2022-11-20 02:00 N/A 64.29 µg/m3 0.16 µg/m3 18.28 °C N/A 998.26 mbar 0.77 m/s 338.55 Deg N/A
2022-11-20 01:00 N/A 65.51 µg/m3 3.62 µg/m3 18.68 °C N/A 998.34 mbar 0.84 m/s 265.03 Deg N/A
2022-11-20 00:00 N/A 64.65 µg/m3 23.66 µg/m3 19.35 °C N/A 998.66 mbar 0.79 m/s 256.86 Deg N/A
2022-11-19 23:00 N/A 59.19 µg/m3 15.66 µg/m3 20.74 °C N/A 998.47 mbar 1.4 m/s 246.54 Deg N/A
2022-11-19 22:00 N/A 60.48 µg/m3 20.84 µg/m3 21.55 °C N/A 998.27 mbar 1.9 m/s 304.01 Deg N/A
2022-11-19 21:00 N/A 63.7 µg/m3 22.17 µg/m3 22.11 °C N/A 997.79 mbar 2.83 m/s 269.83 Deg N/A
2022-11-19 20:00 N/A 68.19 µg/m3 14.83 µg/m3 22.18 °C N/A 997.49 mbar 3 m/s 257.02 Deg N/A
2022-11-19 19:00 N/A 82.58 µg/m3 8.34 µg/m3 22.06 °C N/A 997.15 mbar 2.56 m/s 244.08 Deg N/A
2022-11-19 18:00 N/A 82.47 µg/m3 6.53 µg/m3 22.03 °C N/A 996.88 mbar 2.24 m/s 228.12 Deg N/A
2022-11-19 17:00 N/A 77.73 µg/m3 5.13 µg/m3 22.03 °C N/A 996.75 mbar 2.54 m/s 224.3 Deg N/A
2022-11-19 16:00 N/A 69.81 µg/m3 5.34 µg/m3 22.62 °C N/A 996.66 mbar 2.62 m/s 221.93 Deg N/A
2022-11-19 15:00 N/A 63.62 µg/m3 5.24 µg/m3 23.14 °C N/A 997.09 mbar 2.52 m/s 236.17 Deg N/A
2022-11-19 14:00 N/A 62.7 µg/m3 5.64 µg/m3 23.4 °C N/A 997.23 mbar 2.81 m/s 242.55 Deg N/A
2022-11-19 13:00 N/A 63.71 µg/m3 8.61 µg/m3 23.64 °C N/A 997.39 mbar 3.27 m/s 241.48 Deg N/A
2022-11-19 12:00 N/A 75.84 µg/m3 11.77 µg/m3 23.55 °C N/A 997.88 mbar 3.06 m/s 250.08 Deg N/A

It is to be noted that the data is provisional and subject to quality assurance procedures. For validated data kindly refer your request to contact.air@era.org.mt